Regional Weather Roundup
Issued by NWS New Orleans/Baton Rouge, LA

Home | Current Version | Previous Version | Graphics & Text | Print | Product List | Glossary On
Versions: 1 2 3 4 5 6 7 8 9 10 11 12 13 14 15 16 17 18 19 20 21 22 23 24 25 26 27 28 29 30 31 32 33 34 35 36 37 38 39 40 41 42 43 44 45 46 47 48 49 50
480
ASUS44 KLIX 301001
RWRLIX
NEW ORLEANS REGIONAL WEATHER ROUNDUP
NATIONAL WEATHER SERVICE NEW ORLEANS LA
400 AM CST FRI JAN 30 2015

NOTE: "FAIR" INDICATES FEW OR NO CLOUDS BELOW 12,000 FEET WITH NO
      SIGNIFICANT WEATHER AND/OR OBSTRUCTIONS TO VISIBILITY.
      SKY/WX - SKY CONDITION AND SIGNIFICANT WEATHER.
      TMP - AIR TEMPERATURE.     DP    - DEWPOINT TEMPERATURE.
      RH  - RELATIVE HUMIDITY.   PRES  - PRESSURE.
      HI  - HEAT INDEX.          WCI   - WIND CHILL INDEX.

*  THESE STATIONS ARE NOT NWS OR FAA STATIONS AND ARE NOT UNDER
   NWS QUALITY CONTROL.

LAZ038-040-048-061>063-065>067-069-301100-
SOUTHEAST LOUISIANA

CITY           SKY/WX    TMP DP  RH WIND       PRES   REMARKS
N.O. AUDUBON     N/A     55  50  82 MISG        N/A
N.O. INTL ARPT PTCLDY    54  43  66 N14G24    30.29R
N.O. LAKEFRONT CLEAR     57  44  62 N23G31    30.29R
N.O. DOWNTOWN* NOT AVBL
SLIDELL        CLEAR     52  40  63 N12       30.28R
BATON ROUGE    CLEAR     49  39  68 N6        30.33R
BOOTHVILLE     CLEAR     57  52  83 N8        30.25R
BELLE CHASSE   CLEAR     57  41  55 N14G23    30.27R
BOGALUSA*        N/A     50  39  66 N12G17    30.32S
GALLIANO*      NOT AVBL
NEW ROADS*     NOT AVBL
GONZALES*      NOT AVBL
HAMMOND*       NOT AVBL
HOUMA*         CLEAR     55  50  85 N9        30.27R
PORT FOURCHON* SUNNY     59  57  94 N13       30.28R

$$

MSZ070-080>082-301100-
SOUTHERN MISSISSIPPI

CITY           SKY/WX    TMP DP  RH WIND       PRES   REMARKS
MCCOMB         PTCLDY    45  36  70 N7        30.34R
GULFPORT       CLEAR     54  43  66 N13       30.26R
BILOXI         PTCLDY    55  44  67 VRB5      30.26R
PASCAGOULA     PTCLDY    53  48  83 N5        30.26R

$$

COASTAL OBSERVATIONS
LAKE AND NEARSHORE STATIONS

STATION/POSITION TIME  TEMP    WIND        PRES    WAVE
                       AIR SEA DIR/SP/G            HT/PER
                 (UTC) (F)     (DEG/KT/KT) (MB)    (FT/S)
PASCAGOULA       0919   58     360/ 13/ 17 1023.6
WAVELAND YACHT   0919   57     360/ 12/ 15 1023.9
GRAND ISLE       0919   62 63  330/ 12/ 17 1024.4
SOUTHWEST PASS   0919   59 48  290/ 11/ 12 1024.0
NEW CANAL        0919   57 56   10/ 12/ 14 1025.4
SHELL BEACH      0919   58 57   10/ 16/ 19 1024.5

OFFSHORE STATIONS

STATION/POSITION TIME  TEMP    WIND        PRES    WAVE
                       AIR SEA DIR/SP/G            HT/PER
                 (UTC) (F)     (DEG/KT/KT) (MB)    (FT/S)
64 S DAUPHIN ISL 0933   64 68  330/ 21/ 25 1023.0    3/ 4

$$




USA.gov is the U.S. government's official web portal to all federal, state and local government web resources and services.